[[{"header":{"parameterUnit":"m.s-1","parameterCategory":1,"la1":30.2991,"la2":30.254,"lo1":-89.0895,"lo2":-89.0444,"dy":0.0017,"dx":0.0017,"nx":28,"ny":28,"refTime":"2023-08-20T09:00:00:Z","depth":0,"parameterNumber":2,"parameterNumberName":"U-component_of_WINDS"},"data":[0,0,0,0,0,0,0,0,0,0,0,0,0,0,0,0,0,0,0,0,0,0,0,0,0,0,0,0,0,0,0,0,0,0,0,0,0,0,0,0,0,0,0,0,0,0,0,0,0,0,0,0,0,0,0,0,0,0,-2.8757,-2.8757,0,-2.8727,-2.8726,-2.8726,-2.8632,-2.863,-2.8628,-2.8626,-2.8597,-2.8599,-2.86,0,0,0,0,0,0,0,0,0,0,0,0,0,-2.8736,-2.8737,-2.8757,-2.8757,-2.8756,-2.8727,-2.8726,-2.8726,-2.8632,-2.863,-2.8627,-2.8625,-2.8597,-2.8598,-2.86,0,0,0,0,0,0,0,0,0,0,0,0,0,-2.873,-2.8737,-2.8757,-2.8706,-2.8701,-2.8727,-2.8726,-2.8726,-2.8633,-2.863,-2.8626,-2.8624,-2.8597,-2.8598,-2.86,-2.8674,0,0,-2.8605,-2.8606,0,0,0,0,0,0,0,0,-2.873,-2.873,-2.8714,-2.8709,-2.8704,-2.868,-2.8708,-2.8708,-2.8634,-2.8659,-2.8626,-2.8622,-2.8628,-2.8627,-2.8628,-2.8672,-2.8671,-2.8606,-2.8607,-2.8607,-2.8608,0,0,0,0,0,0,0,-2.8731,-2.8731,-2.8745,-2.8714,-2.8708,-2.8685,-2.8681,-2.8708,-2.8661,-2.8656,-2.8649,-2.8647,-2.8624,-2.8626,-2.8626,-2.8671,-2.8606,-2.8607,-2.8608,-2.8609,-2.8774,-2.8777,0,0,0,0,0,0,-2.8738,-2.8732,-2.8746,-2.8744,-2.8709,-2.8688,-2.8683,-2.8691,-2.8661,-2.8653,-2.865,-2.8643,-2.8625,-2.8624,-2.8625,-2.8708,-2.8607,-2.8609,-2.861,-2.8771,-2.8775,-2.8778,0,0,0,0,0,0,-2.8738,-2.874,-2.8747,-2.8736,-2.8735,-2.8692,-2.8701,-2.8692,-2.8694,-2.8655,-2.8647,-2.866,-2.8622,-2.8623,-2.8662,-2.8706,-2.861,-2.8612,-2.8767,-2.8772,-2.8776,-2.8877,0,0,0,0,0,0,-2.8738,-2.8741,-2.8768,-2.8738,-2.8736,-2.8784,-2.8704,-2.8693,-2.8697,-2.8687,-2.8663,-2.8656,-2.862,-2.866,-2.8664,-2.8707,-2.8613,-2.8762,-2.8769,-2.8775,-2.8869,-2.8885,-2.8898,0,0,0,0,0,-2.8737,-2.8798,-2.8769,-2.8772,-2.8769,-2.8787,-2.8786,-2.8742,-2.8701,-2.8728,-2.8703,-2.8657,-2.8701,-2.8665,-2.8668,-2.8713,-2.8759,-2.8767,-2.8774,-2.8863,-2.8882,-2.8897,0,0,0,0,0,0,-2.8835,-2.8793,-2.8761,-2.8813,-2.8804,-2.8771,-2.8803,-2.8764,-2.8767,-2.8758,-2.8705,-2.87,-2.8747,-2.8734,-2.8694,-2.8782,-2.8723,-2.8731,-2.8789,-2.8806,-2.882,-2.8822,-2.8614,0,0,0,0,0,-2.8863,-2.888,-2.8842,-2.8892,-2.8889,-2.8848,-2.8854,-2.8821,-2.881,-2.8805,-2.8784,-2.8776,-2.8787,-2.8796,-2.8805,-2.8867,-2.8861,-2.89,-2.8914,-2.8926,-2.8934,-2.8965,-2.8982,-2.8803,-2.8803,-2.8802,0,0,-2.892,-2.8899,-2.8913,-2.8912,-2.89,-2.892,-2.8845,-2.8869,-2.8883,-2.8809,-2.8844,-2.8829,-2.8816,-2.8867,-2.8889,-2.8858,-2.8982,-2.8935,-2.8945,-2.8946,-2.8975,-2.8992,-2.9007,-2.8808,-2.8807,-2.8806,0,0,-2.9034,-2.902,-2.906,-2.905,-2.9034,-2.9006,-2.9016,-2.8988,-2.8975,-2.9009,-2.8954,-2.8971,-2.8993,-2.8985,-2.8985,-2.9097,-2.9054,-2.9101,-2.9175,-2.9206,-2.922,-2.9233,-2.9272,-2.9287,-2.9109,-2.911,-2.911,0,-2.9107,-2.9134,-2.9085,-2.9113,-2.9113,-2.9047,-2.9087,-2.908,-2.9069,-2.9071,-2.9037,-2.9062,-2.9049,-2.9097,-2.9125,-2.9127,-2.9136,-2.9103,-2.9222,-2.9234,-2.9245,-2.9281,-2.9297,-2.9115,-2.9115,-2.9114,-2.9114,0,-2.9224,-2.9244,-2.9278,-2.9267,-2.9272,-2.9305,-2.9263,-2.9274,-2.9241,-2.9217,-2.9253,-2.9235,-2.9238,-2.9248,-2.9216,-2.9292,-2.9273,-2.9232,-2.917,-2.9268,-2.9302,-2.9316,-2.9124,-2.9122,-2.912,-2.9118,0,0,-2.9398,-2.936,-2.9373,-2.9367,-2.9345,-2.9359,-2.9391,-2.9393,-2.9403,-2.9398,-2.9423,-2.9443,-2.9404,-2.9403,-2.9371,-2.9399,-2.9487,-2.9353,-2.9352,-2.9378,-2.9569,-2.96,-2.9617,-2.946,-2.9462,-2.9464,-2.957,0,-2.9505,-2.9555,-2.9512,-2.957,-2.9587,-2.9524,-2.9551,-2.9541,-2.952,-2.9532,-2.9508,-2.9523,-2.9471,-2.947,-2.9495,-2.9471,-2.9525,-2.9463,-2.9482,-2.9483,-2.9486,-2.9634,-2.9667,-2.9767,-2.9583,-2.9585,-2.9586,0,-2.9637,-2.9636,-2.9695,-2.9668,-2.9674,-2.9699,-2.9698,-2.971,-2.9698,-2.968,-2.968,-2.9639,-2.9668,-2.961,-2.9649,-2.9608,-2.9614,-2.9604,-2.9606,-2.9605,-2.954,-2.9637,-2.9798,-2.9813,-2.9607,-2.9605,-2.9604,0,-2.9756,-2.9771,-2.9807,-2.9804,-2.9775,-2.9793,-2.9782,-2.9766,-2.9771,-2.9771,-2.9773,-2.9777,-2.9779,-2.9783,-2.9745,-2.9706,-2.979,-2.9727,-2.9776,-2.9777,-2.9795,-2.9795,-2.9959,-2.9801,-2.9801,-2.9801,-2.98,0,-2.988,-2.9918,-2.986,-2.9883,-2.9925,-2.9876,-2.9919,-2.9901,-2.9888,-2.9906,-2.9854,-2.9872,-2.9822,-2.9836,-2.9807,-2.9844,-2.9845,-2.9832,-2.9824,-2.9836,-2.9838,-2.9838,-2.983,-2.9805,-2.9804,-2.9803,-2.9802,0,-3.002,-2.9983,-3.0019,-2.9988,-2.9981,-3.0013,-2.9986,-3.0006,-2.9981,-3.0006,-3.0009,-2.997,-2.9984,-2.9947,-2.9955,-2.9935,-2.9989,-2.997,-2.9993,-2.9986,-3.0037,-3.0032,-3.0206,-3.0227,-3.0057,-3.0058,-3.006,0,-3.0101,-3.0129,-3.01,-3.0108,-3.0099,-3.0114,-3.0117,-3.0071,-3.0078,-3.0065,-3.0087,-3.0096,-3.0101,-3.0126,-3.0099,-3.0105,-3.0085,-3.0146,-3.0086,-3.0097,-3.0085,-3.0084,-3.0086,-3.0158,-3.016,-3.0162,-3.0163,0,-3.0248,-3.0228,-3.0235,-3.0236,-3.0241,-3.024,-3.0235,-3.0245,-3.0196,-3.0206,-3.0218,-3.0222,-3.023,-3.024,-3.024,-3.0229,-3.0189,-3.0183,-3.0194,-3.0206,-3.0218,-3.0212,-3.0025,-3.0178,-3.0177,-3.0176,-3.0175,-3.0174,-3.036,-3.0382,-3.0365,-3.0374,-3.0365,-3.0362,-3.0379,-3.0356,-3.0365,-3.0367,-3.034,-3.0358,-3.0345,-3.0341,-3.0335,-3.0349,-3.0321,-3.0338,-3.0342,-3.0347,-3.0355,-3.0217,-3.0349,-3.0349,-3.0348,-3.0348,-3.0348,0,-3.0503,-3.0489,-3.0499,-3.0493,-3.0501,-3.0461,-3.0453,-3.0462,-3.0479,-3.047,-3.0475,-3.049,-3.0499,-3.0473,-3.0479,-3.0495,-3.0477,-3.0498,-3.0496,-3.0494,-3.038,-3.0369,-3.0513,-3.0513,-3.0513,-3.0513,-3.0513,-3.0513,-3.0579,-3.0613,-3.0591,-3.0621,-3.0607,-3.0623,-3.0622,-3.0619,-3.0611,-3.063,-3.0637,-3.0619,-3.0604,-3.0608,-3.0615,-3.0607,-3.0611,-3.0639,-3.0625,-3.0518,-3.0502,-3.0487,-3.0476,-3.0641,-3.0641,-3.0738,-3.0739,-3.074]},{"header":{"parameterUnit":"m.s-1","parameterCategory":1,"la1":30.2991,"la2":30.254,"lo1":-89.0895,"lo2":-89.0444,"dy":0.0017,"dx":0.0017,"nx":28,"ny":28,"refTime":"2023-08-20T09:00:00:Z","depth":0,"parameterNumber":3,"parameterNumberName":"V-component_of_WINDS"},"data":[0,0,0,0,0,0,0,0,0,0,0,0,0,0,0,0,0,0,0,0,0,0,0,0,0,0,0,0,0,0,0,0,0,0,0,0,0,0,0,0,0,0,0,0,0,0,0,0,0,0,0,0,0,0,0,0,0,0,0.5096,0.5096,0,0.5097,0.5097,0.5097,0.5086,0.5086,0.5086,0.5086,0.5084,0.5084,0.5084,0,0,0,0,0,0,0,0,0,0,0,0,0,0.5085,0.5085,0.5096,0.5096,0.5096,0.5097,0.5097,0.5097,0.5086,0.5086,0.5086,0.5085,0.5084,0.5084,0.5084,0,0,0,0,0,0,0,0,0,0,0,0,0,0.5088,0.5085,0.5096,0.5091,0.5091,0.5097,0.5097,0.5097,0.5086,0.5086,0.5086,0.5085,0.5084,0.5084,0.5084,0.5094,0,0,0.5085,0.5085,0,0,0,0,0,0,0,0,0.5088,0.5088,0.5092,0.5091,0.5091,0.5091,0.5092,0.5096,0.5087,0.5088,0.5086,0.5085,0.5086,0.5086,0.5087,0.5094,0.5094,0.5085,0.5085,0.5086,0.5086,0,0,0,0,0,0,0,0.5088,0.5088,0.5096,0.5092,0.5091,0.5088,0.5088,0.5093,0.5089,0.5088,0.5087,0.5087,0.5086,0.5087,0.5087,0.5094,0.5085,0.5086,0.5086,0.5086,0.5111,0.5111,0,0,0,0,0,0,0.5088,0.5088,0.5096,0.5096,0.5088,0.5089,0.5089,0.5091,0.5089,0.5089,0.5088,0.5087,0.5087,0.5087,0.5087,0.51,0.5086,0.5086,0.5086,0.511,0.5111,0.5111,0,0,0,0,0,0,0.5088,0.5089,0.5096,0.5092,0.5093,0.509,0.5092,0.5092,0.5093,0.5089,0.5089,0.509,0.5087,0.5087,0.5093,0.5099,0.5086,0.5086,0.511,0.511,0.5111,0.5124,0,0,0,0,0,0,0.5088,0.5089,0.5093,0.5092,0.5093,0.5102,0.5093,0.5092,0.5094,0.5092,0.5091,0.509,0.5086,0.5093,0.5093,0.5099,0.5087,0.5109,0.511,0.5111,0.5123,0.5125,0.5127,0,0,0,0,0,0.5087,0.5096,0.5093,0.5094,0.5098,0.5103,0.5103,0.5099,0.5094,0.5098,0.5096,0.509,0.5099,0.5093,0.5094,0.51,0.5109,0.511,0.5111,0.5122,0.5124,0.5127,0,0,0,0,0,0,0.5096,0.5096,0.5093,0.5101,0.5102,0.5101,0.5106,0.5102,0.5104,0.5102,0.5097,0.5097,0.5104,0.5103,0.5097,0.5111,0.5103,0.5104,0.5111,0.5113,0.5115,0.5115,0.5087,0,0,0,0,0,0.5099,0.5104,0.5103,0.511,0.5111,0.5109,0.511,0.5108,0.5108,0.5108,0.5107,0.5107,0.511,0.5111,0.5114,0.5123,0.5123,0.5128,0.513,0.5131,0.5132,0.5138,0.514,0.5115,0.5115,0.5115,0,0,0.5105,0.5106,0.5108,0.5112,0.5113,0.5117,0.5109,0.5114,0.5117,0.5108,0.5115,0.5114,0.5114,0.5122,0.5125,0.5121,0.5139,0.5133,0.5134,0.5134,0.5139,0.5142,0.5144,0.5115,0.5115,0.5115,0,0,0.5119,0.5119,0.5126,0.5127,0.5129,0.5127,0.5129,0.5129,0.5128,0.5135,0.5129,0.5132,0.5137,0.5138,0.5139,0.5154,0.5149,0.5155,0.5165,0.5171,0.5173,0.5174,0.518,0.5182,0.5156,0.5156,0.5156,0,0.5125,0.5133,0.513,0.5136,0.5138,0.5132,0.5139,0.514,0.5142,0.5143,0.5139,0.5146,0.5145,0.5154,0.5158,0.5158,0.516,0.5155,0.5173,0.5174,0.5176,0.5182,0.5184,0.5157,0.5157,0.5157,0.5157,0,0.5142,0.5147,0.5152,0.5156,0.5158,0.5164,0.5162,0.5165,0.5163,0.5162,0.5169,0.5168,0.5171,0.5173,0.517,0.5181,0.5179,0.5174,0.5165,0.5179,0.5184,0.5186,0.5158,0.5158,0.5158,0.5158,0,0,0.5159,0.5162,0.5164,0.5166,0.5168,0.5172,0.5178,0.5182,0.5185,0.5187,0.5192,0.5197,0.5193,0.5194,0.5191,0.5196,0.5209,0.519,0.519,0.5194,0.5222,0.5226,0.5229,0.5206,0.5206,0.5207,0.5223,0,0.5172,0.5184,0.5182,0.5193,0.5199,0.5194,0.52,0.5201,0.5201,0.5205,0.5204,0.5208,0.5202,0.5203,0.5208,0.5206,0.5215,0.5205,0.521,0.5211,0.5211,0.5231,0.5235,0.525,0.5225,0.5225,0.5225,0,0.5189,0.5193,0.5205,0.5208,0.521,0.5215,0.5219,0.5223,0.5225,0.5224,0.5227,0.5223,0.523,0.5222,0.5231,0.5224,0.5227,0.5227,0.5227,0.5227,0.5218,0.5232,0.5255,0.5257,0.5228,0.5228,0.5228,0,0.5201,0.5209,0.5218,0.522,0.5223,0.5227,0.5228,0.523,0.5233,0.5236,0.5238,0.5241,0.5243,0.5246,0.5244,0.5239,0.5254,0.5245,0.5253,0.5253,0.5256,0.5256,0.5279,0.5258,0.5257,0.5257,0.5257,0,0.5216,0.5224,0.5224,0.5229,0.5237,0.5236,0.5244,0.5245,0.5247,0.5252,0.5248,0.5253,0.525,0.5254,0.5252,0.526,0.5261,0.5261,0.526,0.5261,0.5261,0.5262,0.5261,0.5258,0.5258,0.5258,0.5258,0,0.523,0.5231,0.524,0.5243,0.5244,0.525,0.5252,0.5257,0.5257,0.5264,0.5265,0.5265,0.527,0.5269,0.5274,0.5273,0.5283,0.5281,0.5283,0.5282,0.529,0.5289,0.5315,0.5318,0.5294,0.5294,0.5295,0,0.524,0.5246,0.525,0.5254,0.5256,0.5262,0.5265,0.5264,0.5267,0.5271,0.5276,0.5281,0.5285,0.5294,0.5294,0.5298,0.5296,0.5305,0.5297,0.5298,0.5297,0.5297,0.5297,0.5307,0.5307,0.5307,0.5307,0,0.5257,0.5257,0.5262,0.5268,0.5273,0.5277,0.5281,0.5284,0.5283,0.5288,0.5294,0.5297,0.5304,0.5309,0.5313,0.5314,0.5311,0.531,0.5312,0.5313,0.5314,0.5314,0.5287,0.5309,0.5309,0.5309,0.5309,0.5309,0.5269,0.5275,0.5279,0.5285,0.5289,0.5293,0.5298,0.5299,0.5305,0.531,0.5309,0.5316,0.5319,0.5325,0.5327,0.5332,0.5329,0.5331,0.5332,0.5333,0.5334,0.5313,0.5333,0.5333,0.5333,0.5333,0.5333,0,0.5286,0.5289,0.5295,0.5301,0.5307,0.5304,0.5309,0.5313,0.532,0.5323,0.5328,0.5336,0.5341,0.5342,0.5348,0.5352,0.535,0.5353,0.5353,0.5353,0.5337,0.5335,0.5354,0.5354,0.5354,0.5354,0.5354,0.5354,0.5295,0.5305,0.5306,0.5318,0.532,0.5328,0.5331,0.5335,0.5338,0.5347,0.5352,0.5353,0.5356,0.5361,0.5367,0.5367,0.5369,0.5373,0.5372,0.5356,0.5354,0.5352,0.535,0.5373,0.5373,0.5388,0.5388,0.5388]}]]